Wind_Speed
17 16 16 15 14 14 14 14 13 13 12 11 11 11 11 10 10 10 9 9 9 8 7 6 6 6 5 6 7 8 10 10 10 9 8 9 8 8 8 9 7 7 7
18 18 17 17 16 15 15 15 15 14 14 13 13 13 12 12 11 11 11 11 10 9 8 8 8 7 7 7 8 9 10 10 11 10 9 8 8 8 8 9 8 8 8
19 19 19 18 18 17 17 16 16 16 15 14 14 14 14 13 13 13 12 12 11 10 10 9 9 9 8 8 9 10 11 11 10 10 10 9 9 9 9 9 9 8 9
21 20 20 20 19 19 18 18 17 17 16 16 15 15 15 15 14 14 13 13 13 12 11 10 10 10 9 9 10 11 11 11 11 11 10 10 10 10 10 10 10 10 10
23 22 22 22 22 21 21 20 20 19 18 18 17 17 16 16 16 15 15 15 14 14 14 12 12 12 11 11 10 11 12 12 12 11 11 11 11 11 12 12 12 11 11
24 24 24 24 24 23 22 22 22 20 20 20 19 19 18 18 17 17 17 16 16 16 15 14 14 14 13 13 13 13 13 13 13 13 13 13 12 12 12 13 13 13 13
26 25 25 25 25 25 24 24 24 22 22 22 22 21 21 20 19 19 19 18 18 18 17 17 16 16 16 16 15 15 16 15 15 14 14 14 14 14 14 14 14 14 14
27 27 27 27 26 26 26 26 25 25 24 23 23 23 22 21 21 21 21 20 20 20 19 19 18 18 18 18 18 17 18 17 17 16 16 16 16 15 15 15 15 15 15
29 29 29 28 28 28 28 27 26 26 26 26 25 25 24 23 23 23 23 23 22 22 21 21 21 20 20 20 20 20 19 19 19 19 18 18 18 17 17 17 16 17 17
30 30 30 30 30 29 29 28 28 27 27 27 27 27 26 26 25 25 24 24 24 25 24 24 24 23 22 22 22 22 22 23 23 21 21 20 19 19 19 19 19 19 19
30 31 31 31 31 31 31 30 30 29 29 29 29 29 29 28 27 27 26 26 26 26 25 25 26 26 25 24 24 24 24 25 25 24 23 23 22 22 22 21 22 22 21
31 32 33 32 33 33 33 32 32 32 31 32 31 31 31 30 30 29 29 28 28 27 27 27 27 27 27 27 27 27 26 26 26 26 26 25 25 25 24 24 24 24 24
32 33 33 34 34 34 34 34 34 34 34 33 34 33 32 32 32 32 31 31 30 30 30 29 30 30 30 30 29 29 29 28 28 28 28 27 27 27 27 26 27 26 26
34 34 34 35 35 35 35 35 35 35 35 35 35 35 35 34 34 34 34 34 33 33 33 33 33 32 32 33 32 32 32 31 31 30 30 30 30 29 29 29 29 29 29
35 35 36 36 37 37 37 37 37 37 37 37 37 36 37 36 36 36 36 36 36 35 35 35 35 35 35 34 34 34 34 34 34 33 32 32 32 32 32 32 32 32 32
36 37 38 37 38 38 38 39 39 39 38 38 39 38 38 38 38 38 37 37 38 38 37 37 37 37 37 37 36 36 36 36 36 36 35 35 35 35 34 34 34 34 34
37 37 38 39 38 39 39 40 40 40 40 40 40 40 40 40 40 41 41 40 40 40 39 39 39 39 39 39 39 38 38 38 38 39 39 38 38 37 37 35 35 36 35
38 38 39 40 40 40 40 40 40 41 42 42 42 42 42 42 42 42 42 42 42 41 41 42 41 41 41 41 40 40 40 40 40 40 41 40 40 39 39 38 37 36 36
39 39 39 40 41 41 41 41 41 42 43 43 43 44 44 44 44 44 44 43 43 43 43 44 44 43 43 43 43 42 42 42 42 42 42 42 41 41 41 41 40 39 39
39 40 40 40 41 41 42 42 42 43 44 44 44 45 45 45 45 45 45 45 45 45 45 45 45 45 45 45 45 45 45 45 45 44 44 44 43 43 43 43 43 42 42
38 39 40 41 41 42 42 42 43 43 44 45 46 46 46 46 46 46 46 47 47 46 47 47 47 47 47 46 46 47 47 47 47 47 46 46 46 45 45 45 45 44 44
39 39 40 41 42 43 43 43 43 44 45 46 47 47 48 48 48 48 48 48 48 47 48 48 48 49 48 48 47 48 48 48 49 49 49 49 49 48 47 47 47 46 46
39 39 40 41 42 43 44 44 45 45 45 46 47 47 48 48 49 49 49 49 49 49 49 49 49 50 50 49 49 49 49 49 50 50 50 50 51 51 50 50 50 49 49
39 39 40 42 42 43 44 45 46 46 46 47 47 48 48 49 49 49 49 50 50 49 49 49 49 49 50 50 50 50 50 49 51 51 52 52 52 52 52 52 52 51 51
39 41 41 41 42 43 44 45 46 46 46 46 47 48 49 49 50 49 49 49 49 50 50 49 50 51 51 51 52 52 52 52 52 53 53 53 53 53 53 53 54 53 53
39 40 41 41 42 44 44 45 45 46 46 47 48 48 49 49 50 50 50 50 50 50 50 51 51 52 52 52 53 54 54 54 54 55 55 56 55 55 54 54 55 55 56
Wind_Direction
235 234 234 232 230 228 225 223 223 224 224 226 226 226 224 220 222 226 228 229 227 224 227 232 229 237 240 226 221 212 204 203 201 203 202 199 198 200 201 203 207 207 209
237 236 235 233 230 230 227 225 225 225 226 227 228 228 226 225 226 229 230 232 231 227 230 234 235 239 241 233 227 214 206 206 209 211 211 212 214 213 215 213 217 218 218
237 237 236 234 232 231 229 227 225 226 229 230 230 230 230 229 230 231 233 234 231 230 233 235 237 239 240 233 224 216 210 211 212 216 217 219 222 224 226 227 228 223 223
236 237 237 235 234 232 231 230 229 230 232 233 234 234 233 232 232 233 234 234 234 233 236 237 239 238 238 234 227 224 218 218 218 221 222 223 227 231 234 236 235 233 233
236 237 237 237 235 234 233 233 233 233 235 237 237 236 236 236 235 235 236 237 237 237 239 239 240 240 238 237 232 224 223 223 224 226 226 228 231 235 237 239 239 239 240
236 236 236 237 237 237 236 237 237 236 238 239 240 238 237 239 239 239 240 240 240 240 240 240 241 241 240 239 237 234 229 226 230 231 231 232 235 239 242 243 244 243 243
238 237 236 237 238 237 238 239 239 239 240 240 242 242 240 240 241 242 243 243 242 242 243 243 242 243 243 242 243 243 239 233 232 235 237 239 241 242 245 245 246 247 246
240 238 237 237 238 238 239 240 241 241 242 242 244 244 243 243 244 245 246 245 244 244 245 245 244 243 244 244 243 244 241 237 236 238 239 241 244 245 247 248 247 247 247
242 239 238 238 239 240 241 242 242 243 243 243 245 246 246 247 248 248 248 249 248 247 247 247 247 246 245 245 245 243 243 243 241 241 241 243 245 247 248 250 250 250 249
243 241 240 240 240 240 242 243 243 244 245 246 246 248 248 249 250 250 250 251 251 249 249 249 248 248 247 246 247 247 247 247 245 244 244 245 246 248 249 249 250 251 251
244 242 242 242 242 242 243 244 245 246 247 247 248 249 250 251 251 252 252 252 252 252 251 250 248 250 249 248 246 246 249 249 247 245 247 248 248 249 250 250 251 252 253
245 244 243 243 243 243 244 245 246 246 248 249 249 250 249 251 253 253 253 253 253 252 252 251 249 250 251 250 249 249 250 249 249 248 248 248 249 250 251 252 252 252 253
245 244 243 242 242 244 245 245 246 247 249 250 249 250 249 249 251 252 253 253 253 253 253 252 251 250 251 250 250 250 251 250 252 252 250 250 250 251 252 253 253 253 253
246 246 244 244 243 244 244 245 247 247 248 250 250 250 249 249 250 251 253 252 252 252 252 252 252 251 251 250 249 250 250 249 252 253 251 251 252 253 253 254 255 255 256
247 246 245 245 244 244 245 245 246 248 249 250 250 251 250 250 250 251 251 252 252 252 252 252 252 252 251 251 250 250 250 251 251 252 253 252 253 254 254 255 256 256 256
249 247 246 246 246 245 246 246 247 247 249 250 251 251 252 253 252 252 251 253 253 253 253 253 254 253 252 251 251 251 251 252 252 252 253 253 254 254 255 255 255 256 256
250 248 247 246 246 246 247 247 248 249 250 251 252 252 253 255 256 256 255 255 254 253 253 253 253 254 253 252 252 252 252 253 253 254 255 255 255 255 255 255 256 256 256
251 250 249 248 247 247 248 248 249 250 251 252 252 253 255 256 257 257 256 256 255 254 254 253 254 253 252 252 253 253 253 253 254 255 256 255 255 255 255 255 255 256 256
251 251 250 250 250 250 250 250 251 251 252 254 254 255 256 256 257 257 258 258 257 255 254 254 254 253 252 253 253 254 254 254 255 256 256 255 255 255 255 256 257 257 257
252 252 251 251 252 252 252 253 253 253 254 254 256 256 256 257 257 257 257 257 257 256 255 253 253 254 253 254 254 254 254 255 256 256 256 256 255 255 256 257 258 258 258
252 252 252 252 252 252 253 254 255 255 256 255 256 257 257 257 257 257 257 257 256 256 256 254 254 254 254 254 254 254 255 255 255 256 257 258 257 256 256 257 258 258 258
252 252 253 253 253 254 255 255 256 257 257 257 257 258 258 258 258 257 257 257 257 257 256 256 255 254 254 254 255 255 255 255 255 256 256 257 258 257 258 258 258 258 259
254 254 253 253 254 255 255 256 258 258 259 259 259 260 259 260 260 259 258 257 257 257 257 256 255 254 253 253 254 255 255 255 255 256 257 257 258 257 258 258 258 258 259
254 255 254 254 255 256 257 258 259 260 260 261 261 261 261 261 260 260 260 259 258 258 257 257 256 255 254 253 253 253 254 255 255 256 257 258 258 258 258 259 258 257 259
256 256 256 256 256 257 258 259 260 260 260 261 262 262 262 261 260 259 259 259 259 259 259 258 258 257 255 254 254 254 254 255 256 256 257 258 258 258 258 258 258 258 259
258 258 259 259 258 259 260 260 261 261 261 262 262 261 261 260 260 260 259 259 259 259 259 258 258 258 257 257 256 256 256 257 258 258 258 258 258 259 259 259 259 260 261
Height
5842 5843 5844 5845 5845 5846 5847 5848 5849 5850 5851 5851 5852 5852 5853 5853 5853 5854 5854 5855 5855 5855 5855 5855 5855 5854 5853 5852 5853 5854 5856 5858 5859 5860 5861 5862 5863 5864 5865 5866 5867 5867 5868
5839 5840 5841 5842 5843 5844 5845 5846 5847 5848 5849 5849 5850 5850 5851 5851 5852 5852 5853 5853 5853 5854 5854 5853 5853 5853 5852 5851 5851 5852 5854 5856 5858 5859 5861 5862 5863 5864 5864 5865 5866 5866 5867
5836 5837 5838 5839 5840 5841 5842 5843 5844 5845 5846 5847 5847 5848 5849 5849 5850 5850 5851 5851 5852 5852 5852 5852 5852 5852 5851 5850 5850 5851 5853 5855 5857 5859 5860 5861 5862 5863 5863 5864 5865 5865 5866
5832 5834 5835 5836 5837 5838 5839 5840 5841 5842 5843 5844 5845 5846 5846 5847 5847 5848 5848 5849 5849 5850 5850 5850 5851 5851 5851 5850 5850 5851 5853 5854 5856 5857 5858 5859 5860 5861 5862 5863 5864 5864 5865
5828 5829 5831 5832 5834 5835 5836 5837 5838 5839 5840 5841 5842 5843 5843 5844 5845 5845 5846 5846 5847 5848 5848 5848 5849 5849 5849 5850 5850 5850 5852 5853 5854 5856 5857 5858 5859 5859 5860 5861 5862 5863 5863
5823 5825 5827 5828 5830 5831 5833 5834 5835 5836 5837 5838 5839 5839 5840 5841 5842 5843 5843 5844 5844 5845 5845 5846 5846 5847 5848 5848 5849 5849 5850 5851 5853 5854 5855 5856 5857 5858 5858 5859 5860 5861 5861
5818 5820 5822 5823 5825 5827 5828 5830 5831 5832 5833 5834 5835 5836 5837 5838 5839 5839 5840 5841 5841 5842 5843 5843 5844 5845 5845 5846 5847 5847 5848 5849 5850 5851 5852 5853 5854 5855 5856 5857 5857 5858 5859
5813 5815 5817 5819 5820 5822 5824 5825 5827 5828 5829 5830 5831 5832 5833 5834 5835 5836 5837 5837 5838 5838 5839 5840 5841 5841 5842 5843 5844 5844 5845 5846 5847 5848 5850 5851 5851 5852 5853 5854 5854 5855 5856
5808 5809 5811 5813 5815 5817 5819 5820 5822 5823 5825 5826 5827 5827 5829 5830 5831 5832 5832 5833 5834 5835 5835 5836 5837 5838 5839 5840 5840 5841 5842 5843 5844 5845 5846 5847 5848 5849 5850 5851 5851 5852 5853
5802 5803 5805 5807 5809 5811 5813 5815 5816 5818 5819 5821 5822 5823 5824 5824 5826 5827 5828 5828 5829 5830 5831 5832 5833 5834 5835 5836 5837 5837 5838 5839 5840 5841 5842 5843 5844 5845 5846 5847 5848 5848 5849
5795 5797 5799 5801 5803 5805 5807 5809 5810 5812 5813 5815 5816 5817 5818 5819 5820 5822 5822 5823 5824 5825 5826 5827 5828 5829 5830 5831 5832 5833 5834 5835 5836 5837 5838 5839 5840 5841 5841 5842 5843 5844 5845
5789 5791 5792 5794 5796 5799 5800 5802 5804 5805 5807 5808 5809 5811 5812 5813 5814 5815 5817 5818 5819 5820 5820 5821 5823 5824 5824 5825 5826 5827 5829 5830 5831 5832 5833 5834 5835 5836 5837 5837 5838 5839 5840
5782 5784 5786 5788 5790 5792 5794 5795 5797 5798 5800 5801 5802 5804 5805 5806 5807 5808 5810 5811 5812 5813 5815 5816 5817 5818 5819 5819 5821 5822 5823 5824 5825 5826 5827 5828 5829 5830 5831 5832 5833 5834 5834
5775 5777 5779 5781 5783 5785 5786 5788 5790 5791 5793 5794 5795 5797 5798 5799 5800 5801 5803 5804 5805 5806 5808 5809 5810 5811 5812 5813 5814 5816 5817 5818 5819 5820 5821 5822 5823 5824 5825 5826 5827 5828 5828
5768 5770 5771 5773 5775 5777 5779 5780 5782 5784 5785 5786 5788 5789 5790 5791 5792 5793 5795 5796 5797 5799 5800 5801 5802 5803 5805 5806 5807 5809 5810 5811 5812 5814 5815 5816 5816 5817 5818 5819 5820 5821 5822
5760 5762 5763 5765 5767 5769 5771 5772 5774 5775 5777 5778 5779 5781 5782 5783 5784 5785 5786 5787 5789 5790 5791 5793 5794 5795 5797 5798 5800 5801 5803 5804 5805 5806 5807 5808 5809 5810 5811 5812 5813 5813 5814
5751 5753 5755 5757 5758 5760 5762 5763 5765 5766 5768 5769 5770 5771 5773 5774 5775 5776 5777 5778 5780 5781 5782 5784 5785 5786 5788 5789 5791 5793 5794 5795 5797 5798 5799 5800 5801 5802 5803 5804 5805 5805 5806
5742 5744 5746 5747 5749 5751 5752 5754 5755 5757 5758 5760 5761 5762 5763 5764 5765 5766 5767 5768 5770 5771 5772 5774 5775 5777 5778 5780 5782 5784 5785 5787 5788 5789 5790 5791 5793 5794 5795 5796 5797 5797 5797
5733 5735 5736 5738 5740 5741 5742 5744 5746 5747 5748 5750 5751 5752 5753 5753 5755 5756 5757 5758 5759 5760 5761 5763 5765 5767 5768 5770 5772 5774 5776 5777 5779 5780 5781 5782 5784 5785 5786 5787 5788 5789 5789
5724 5726 5727 5729 5730 5731 5733 5734 5736 5737 5738 5739 5740 5741 5742 5743 5744 5745 5746 5747 5748 5749 5750 5752 5753 5755 5757 5759 5761 5763 5765 5767 5768 5770 5771 5772 5774 5775 5776 5778 5779 5780 5781
5714 5716 5717 5719 5720 5721 5723 5724 5726 5727 5727 5728 5729 5729 5730 5731 5732 5733 5734 5735 5736 5737 5738 5740 5742 5743 5746 5748 5750 5752 5754 5756 5757 5759 5760 5762 5763 5765 5766 5767 5768 5770 5771
5704 5705 5707 5708 5710 5711 5712 5713 5715 5715 5716 5717 5717 5718 5718 5719 5720 5721 5721 5722 5723 5725 5726 5728 5730 5731 5734 5736 5738 5740 5742 5745 5746 5747 5749 5751 5752 5753 5755 5756 5757 5759 5760
5693 5695 5696 5697 5699 5700 5701 5702 5703 5703 5704 5705 5706 5706 5706 5706 5707 5707 5708 5710 5711 5712 5714 5715 5717 5719 5721 5723 5725 5727 5729 5732 5734 5736 5737 5739 5740 5741 5743 5744 5746 5747 5748
5682 5683 5685 5686 5687 5688 5689 5690 5691 5691 5692 5693 5693 5693 5694 5694 5694 5695 5696 5697 5698 5699 5701 5702 5704 5706 5708 5710 5712 5714 5717 5718 5721 5723 5724 5726 5727 5728 5730 5731 5733 5734 5735
5671 5672 5673 5674 5676 5676 5677 5678 5679 5679 5680 5680 5680 5681 5681 5682 5682 5682 5683 5684 5685 5687 5688 5689 5691 5693 5695 5697 5699 5701 5703 5705 5706 5709 5711 5713 5714 5715 5716 5718 5719 5721 5722
5661 5661 5662 5663 5664 5664 5665 5666 5666 5667 5667 5667 5668 5668 5669 5669 5669 5670 5671 5672 5673 5674 5675 5676 5678 5679 5681 5683 5685 5687 5689 5691 5693 5695 5697 5698 5700 5702 5702 5704 5705 5706 5707